This is the latest recevied weather packets stored in our database for station/object KC8BSD. If no packets are shown the sender has not sent any weather packets the latest 10 day(s).
| Time | Temp. | Humidity | Pressure | Rain* | Wind** | Luminosity | Snow |
|---|---|---|---|---|---|---|---|
| 1778116203 | 10° C | 47% | 1014.2 hPa | 0 mm | - | 0 W/m² | - |
| 1778115897 | 10° C | 48% | 1014 hPa | 0 mm | - | 0 W/m² | - |
| 1778115594 | 10.56° C | 47% | 1014.5 hPa | 0 mm | - | 0 W/m² | - |
| 1778115292 | 10.56° C | 47% | 1014.2 hPa | 0 mm | - | 0 W/m² | - |
| 1778114988 | 10.56° C | 47% | 1014.2 hPa | 0 mm | - | 0 W/m² | - |
| 1778114684 | 10.56° C | 48% | 1014.1 hPa | 0 mm | - | 0 W/m² | - |
| 1778114383 | 10.56° C | 48% | 1014 hPa | 0 mm | - | 0 W/m² | - |
| 1778114077 | 10.56° C | 49% | 1014.1 hPa | 0 mm | - | 0 W/m² | - |
| 1778113772 | 10° C | 50% | 1014 hPa | 0 mm | - | 0 W/m² | - |
| 1778113469 | 10° C | 51% | 1013.9 hPa | 0 mm | - | 3 W/m² | - |
| 1778113166 | 10° C | 52% | 1013.8 hPa | 0 mm | - | 5 W/m² | - |
| 1778112863 | 10.56° C | 54% | 1013.9 hPa | 0 mm | - | 7 W/m² | - |
| 1778112561 | 10.56° C | 51% | 1013.9 hPa | 0 mm | - | 8 W/m² | - |
| 1778112255 | 10.56° C | 50% | 1013.7 hPa | 0 mm | - | 5 W/m² | - |
| 1778111951 | 10.56° C | 48% | 1013.9 hPa | 0 mm | - | 6 W/m² | - |
| 1778111649 | 10.56° C | 51% | 1013.9 hPa | 0 mm | - | 7 W/m² | - |
| 1778111344 | 10.56° C | 49% | 1014.1 hPa | 0 mm | - | 12 W/m² | - |
| 1778111043 | 10.56° C | 50% | 1013.9 hPa | 0 mm | - | 20 W/m² | - |
| 1778110740 | 10.56° C | 50% | 1013.9 hPa | 0 mm | - | 17 W/m² | - |
| 1778110435 | 10.56° C | 48% | 1013.7 hPa | 0 mm | - | 14 W/m² | - |
| 1778110133 | 11.11° C | 47% | 1013.9 hPa | 0 mm | - | 19 W/m² | - |
| 1778109829 | 11.11° C | 49% | 1013.7 hPa | 0 mm | - | 23 W/m² | - |
| 1778109525 | 11.11° C | 46% | 1013.7 hPa | 0 mm | - | 19 W/m² | - |
| 1778109223 | 11.11° C | 48% | 1013.7 hPa | 0 mm | - | 22 W/m² | - |
| 1778108920 | 11.11° C | 49% | 1013.8 hPa | 0 mm | - | 21 W/m² | - |
* Rain latest hour (hover to see other rain measurements)
** Current wind speed in m/s (hover to see current wind gust speed)